Regional Weather Roundup
Issued by NWS

Home | Current Version | Previous Version | Graphics & Text | Print | Product List | Glossary Off
Versions: 1 2 3 4 5 6 7 8 9 10 11 12 13 14 15 16 17 18 19 20 21 22 23 24 25 26 27 28 29 30 31 32 33 34 35 36 37 38 39 40 41 42 43 44 45 46 47 48 49 50

000
ASUS43 KMKX 211421
RWRWI

WISCONSIN REGIONAL WEATHER ROUNDUP
NATIONAL WEATHER SERVICE MILWAUKEE/SULLIVAN WI
900 AM CDT THU SEP 21 2017

NOTE: "FAIR" INDICATES FEW OR NO CLOUDS BELOW 12,000 FEET WITH NO
SIGNIFICANT WEATHER AND/OR OBSTRUCTIONS TO VISIBILITY.

WIZ001-002-006>008-014>016-023>028-211500-
NORTHWEST WISCONSIN

CITY           SKY/WX    TMP DP  RH WIND       PRES   REMARKS
SUPERIOR ARPT  SUNNY     52  52  99 CALM      30.04S
ASHLAND        SUNNY     54  51  90 CALM      30.05F
HAYWARD        SUNNY     57  51  80 CALM      30.04S
SIREN          SUNNY     54  50  85 E3        30.01F
CUMBERLAND     SUNNY     55  50  82 CALM      30.03S
RICE LAKE      SUNNY     56  56  99 CALM      30.04F
CHETEK         SUNNY     57  53  86 SE3       30.03F
LADYSMITH      SUNNY     61  55  81 E5        30.06S
EAU CLAIRE     SUNNY     59  55  87 N5        30.01F
MENOMONIE      SUNNY     56  54  91 CALM      30.02S
NEW RICHMOND   SUNNY     57  53  84 E8        30.01S
OSCEOLA        SUNNY     58  53  84 E7        30.02F
$$

WIZ003>005-009-010-017-018-211500-
NORTH CENTRAL WISCONSIN

CITY           SKY/WX    TMP DP  RH WIND       PRES   REMARKS
MANITOWISH WTR SUNNY     58  58 100 E5        30.07R
ARBOR VITAE    SUNNY     59  58  96 E5        30.07R
WOODRUFF       SUNNY     59  58  96 E5        30.07R
RHINELANDER    SUNNY     60  59  96 E9        30.07S
EAGLE RIVER    MOSUNNY   58  58 100 E5        30.07S
LAND O LAKES   MOSUNNY   58  58 100 E3        30.09F
PHILLIPS       SUNNY     55  55 100 CALM      30.05S
TOMAHAWK         N/A     58  58  97 E3        30.05F
MEDFORD        SUNNY     61  56  84 E7        30.04R
MERRILL          N/A     59  59 100 E5        30.05F
$$

WIZ029-030-035-036-043>047-211500-
CENTRAL WISCONSIN

CITY           SKY/WX    TMP DP  RH WIND       PRES   REMARKS
WAUSAU         CLOUDY    62  59  90 E7        30.03S
MOSINEE        CLOUDY    63  63 100 E9        30.05S
MARSHFIELD     PTSUNNY   63  59  87 E10       30.03R
STEVENS POINT  CLOUDY    63  63 100 E7        30.05R FOG
WAUPACA        CLOUDY    68  68  98 NE3       30.03R FOG
WAUTOMA        CLOUDY    66  66 100 E3        30.04R FOG
WISC RAPIDS    CLOUDY    67  67 100 E10       30.04R FOG
CAMP DOUGLAS   FOG       61  61 100 CALM      30.02R VSB 1/4
$$

WIZ011>013-019>022-031-037>040-048>050-211500-
NORTHEAST WISCONSIN

CITY           SKY/WX    TMP DP  RH WIND       PRES   REMARKS
ANTIGO         MOSUNNY   64  59  82 E9        30.06F
SHAWANO        CLOUDY    68  65  89 NE6       30.04S
OCONTO         CLOUDY    67  62  84 CALM      30.03R
STURGEON BAY   CLOUDY    68  66  93 N6        30.03S
GREEN BAY      CLOUDY    68  66  93 NE12      30.03S
MANITOWOC      MOSUNNY   71  67  87 N3        30.03R
APPLETON       CLOUDY    66  66 100 E6        30.02R FOG
CLINTONVILLE   NOT AVBL
OSHKOSH        CLOUDY    69  68  96 E6        30.02R
$$

WIZ032>034-041-042-053>061-211500-
SOUTHWEST WISCONSIN

CITY           SKY/WX    TMP DP  RH WIND       PRES   REMARKS
LA CROSSE      CLOUDY    63  59  88 CALM      30.00
SPARTA         CLOUDY    55  55 100 CALM      30.02S
VIROQUA        CLOUDY    64  64 100 E6        30.02S
BOSCOBEL       CLOUDY    71  68  90 VRB3      30.00R
PRAIRIE DU CHI CLOUDY    68  66  94 CALM      29.99S FOG
PLATTEVILLE    CLOUDY    69  69 100 CALM      30.00R
$$

WIZ056-057-062-063-064-067-068-211500-
SOUTH CENTRAL WISCONSIN

CITY           SKY/WX    TMP DP  RH WIND       PRES   REMARKS
REEDSBURG      CLOUDY    66  66 100 NE3       30.01R
BARABOO/DELLS  FOG       68  66  94 NE3       30.02R VSB 1/4
LONE ROCK      CLOUDY    72  70  93 E3        29.99S FOG
MINERAL POINT  CLOUDY    70  70 100 CALM      30.01R
MADISON        CLOUDY    72  70  93 NE7       30.02R FOG
MIDDLETON      CLOUDY    72  72 100 CALM      30.02
WATERTOWN      CLOUDY    71  71 100 E5        30.02R
MONROE         CLOUDY    70  64  83 E5        30.03R
JANESVILLE     NOT AVBL
$$

WIZ051-052-058>065-066-070>072-211500-
SOUTHEAST WISCONSIN

CITY           SKY/WX    TMP DP  RH WIND       PRES   REMARKS
MILWAUKEE      CLOUDY    73  68  84 N6        30.01S
WAUKESHA       MOSUNNY   72  66  83 E2        30.04R
MILWAUKEE/TIMM SUNNY     72  64  78 E3        30.02S
RACINE         CLOUDY    76  69  79 N9        30.03R
BURLINGTON     MOSUNNY   76  71  84 SW6       30.03R
KENOSHA        CLOUDY    77  68  73 W3        30.02R
FOND DU LAC    CLOUDY    71  66  84 E5        30.02R
SHEBOYGAN      CLOUDY    72  69  90 CALM      30.02S
WEST BEND        N/A     70  68  94 E6        30.02F
JUNEAU         CLOUDY    69  68  94 NE3       30.03S
$$

LSZ147-162-211500-
LAKE SUPERIOR

STATION/POSITION TIME  TEMP    WIND        PRES    WAVE
                       AIR SEA DIR/SP/G            HT/PER
                 (UTC) (F)     (DEG/KT/KT) (MB)    (FT/S)
W MID LAKE BUOY  1350   55 54  130/  4/  6 1017.7R   1
DEVILS ISLAND    1400   58      70/  5/  5 1017.5R
PORT WING        1140          110/  4/  7 1016.6
SAXON HARBOR     1330   52     180/  1/  2 1016.9S
$$

LMZ867-665-643>646-211500-
LAKE MICHIGAN

STATION/POSITION TIME  TEMP    WIND        PRES    WAVE
                       AIR SEA DIR/SP/G            HT/PER
                 (UTC) (F)     (DEG/KT/KT) (MB)    (FT/S)
S GREEN BAY BUOY 1400   67 66   40/ 10/ 12 1016.7
N MID LAKE BUOY  1350   66 65   10/  8/ 12 1016.6R   2/ 5
NORTHPORT PIER   1340   67     340/  6/  8 1016.3S
KEWAUNEE LAKESHO 1354   66      20/  2/  4 1016.0R
SHEBOYGAN LAKESH 1400   70      10/  6/  6 1016.1R
PORT WASHINGTON  1330   72      30/  5/  8 1016.9S
ATWATER BUOY     1309   68 66  340/  4/  4 1016.4R
MILWAUKEE LAKESH 1400   70      20/  5/  5   N/A
S MID LAKE BUOY  1350   71 69  270/  8/ 10 1016.2R   1/ 3
KENOSHA   LAKESH 1400   74     150/  2/  3 1016.3
$$

TC  - TEMPERATURE IN CELSIUS
VSB - VISIBILITY IN STATUTE MILES
WCI - WIND CHILL INDEX
HX  - HEAT INDEX





USA.gov is the U.S. government's official web portal to all federal, state and local government web resources and services.